Flag for Germany Weather past 2 weeks in Bayreuth, Bavaria, Germany

Now
40 °F

Clear.


Feels Like: 40 °F
Forecast: 41 / 70 °F
Wind: No wind

Location: Grafenwoehr


UV Index: 0 (Low)

Visibility: N/A


Pressure: 29.72 "Hg

Humidity: 97%

Dew point: 40 °F

Location of BayreuthLocation

Historic Weather in Bayreuth

°F

Bayreuth temperature yesterday

Maximum temperature yesterday: 64 °F (at 2:58 PM)
Minimum temperature yesterday: 44 °F (at 10:58 PM)
Average temperature yesterday: 54 °F

Past Weeks' High & Low Weather Summary

 TemperatureHumidityPressure
High69 °F (Apr 7, 4:58 PM)100% (Apr 6, 2:58 AM)30.43 "Hg (Apr 6, 2:58 AM)
Low23 °F (Apr 17, 5:58 AM)23% (Apr 17, 3:58 PM)29.72 "Hg (Apr 21, 1:58 AM)
Average47 °F70%30.06 "Hg
* Reported Apr 6 1:58 AM — Apr 21 1:58 AM, Bayreuth, Weather by CustomWeather, © 2014

Note: Actual official high and low records may vary slightly from our data, if they occured in-between our weather recording intervals... More about our weather records

Advertising

Historic Weather Conditions — Data for Previous 24 hours

 ConditionsComfort  
Time TempWeatherWind HumidityBarometerVisibility
1:58 AM
Apr 21
40 °FClear.No wind97%29.72 "HgN/A
12:58 AM41 °FClear.No wind100%29.74 "HgN/A
11:58 PM
Apr 20
45 °FClear.No wind76%29.75 "HgN/A
10:58 PM44 °FClear.No wind83%29.76 "HgN/A
9:58 PM48 °FClear.3 mph63%29.75 "HgN/A
8:58 PM52 °FSunny.1 mph50%29.74 "HgN/A
7:58 PM56 °FSunny.3 mph42%29.73 "HgN/A
6:58 PM59 °FSunny.9 mph39%29.73 "HgN/A
5:58 PM55 °FSunny.2 mph49%29.75 "HgN/A
4:58 PM54 °FLight rain. Mostly cloudy.14 mph51%29.78 "HgN/A
3:58 PM62 °FBroken clouds.7 mph30%29.73 "HgN/A
2:58 PM64 °FScattered clouds.9 mph28%29.73 "HgN/A
1:58 PM63 °FPassing clouds.13 mph32%29.74 "HgN/A
12:58 PM63 °FPassing clouds.10 mph33%29.75 "HgN/A
11:58 AM61 °FPassing clouds.10 mph36%29.76 "HgN/A
10:58 AM56 °FPartly sunny.9 mph44%29.77 "HgN/A
9:58 AM56 °FPassing clouds.10 mph49%29.77 "HgN/A
8:58 AM52 °FOvercast.8 mph62%29.78 "HgN/A
7:58 AM50 °FSunny.5 mph72%29.78 "HgN/A
6:58 AM47 °FClear.5 mph75%29.78 "HgN/A
5:58 AM46 °FClear.1 mph71%29.76 "HgN/A
4:58 AM50 °FClear.3 mph58%29.75 "HgN/A
3:58 AM52 °FClear.10 mph51%29.76 "HgN/A
Weather by CustomWeather, © 2014

See weather overview